Regional Weather Roundup
Issued by NWS

Home | Current Version | Previous Version | Graphics & Text | Print | Product List | Glossary On
Versions: 1 2 3 4 5 6 7 8 9 10 11 12 13 14 15 16 17 18 19 20 21 22 23 24 25 26 27 28 29 30 31 32 33 34 35 36 37 38 39 40 41 42 43 44 45 46 47 48 49 50
000
ASUS45 KTFX 141219
RWRMT
MONTANA HOURLY WEATHER ROUNDUP
NATIONAL WEATHER SERVICE GREAT FALLS MT
619 AM MDT SUN SEP 14 2014

NOTE: "FAIR" INDICATES FEW OR NO CLOUDS BELOW 12000 FEET WITH NO
SIGNIFICANT WEATHER AND/OR OBSTRUCTIONS TO VISIBILITY.

* THESE STATIONS ARE NOT UNDER NWS QUALITY CONTROL. THEY DO NOT
   REPORT WEATHER SUCH AS PRECIPITATION OR FOG.

MTZ001>007-043-141300-
WEST OF THE DIVIDE
CITY           SKY/WX    TMP DP  RH WIND       PRES   REMARKS
KALISPELL      CLEAR     32  30  92 NW5       30.05R WCI  27
MISSOULA       PTCLDY    36  28  73 CALM      30.08R
BUTTE          PTCLDY    30  27  89 SE6       30.10R WCI  24
MULLAN PASS    CLEAR     46  25  44 SE5       30.07S
* LINCOLN      N/A       26  25  96 N/A        N/A
* LOOKOUT PASS N/A       38  30  73 S4         N/A
* POLSON       N/A       40  34  79 N/A        N/A
* RONAN APT    CLEAR     30  27  89 N/A        N/A
* SEELEY LAKE  N/A       26  24  92 N/A        N/A
* THOMP F APT  CLEAR     30  27  89 N/A        N/A
$$

MTZ008-052>055-141300-
SOUTHWEST MONTANA
CITY           SKY/WX    TMP DP  RH WIND       PRES   REMARKS
BOZEMAN        PTCLDY    36  30  79 NW3       30.09R
DILLON         CLEAR     34  28  79 CALM      30.09R
W YELLOWSTONE  CLEAR     25  23  92 CALM      30.15R
* THREE FORKS  PTCLDY    30  30 100 N/A        N/A
* BOULDER HILL N/A       36  29  76 S5         N/A   WCI  32
* MONIDA PASS  N/A       34  26  73 W4         N/A
* RAYNOLDS PAS N/A       34  11  38 SE3        N/A
* WHITEHALL    N/A       31  28  89 SW1G6      N/A
* WISE RIVER   N/A       30  26  85 W3         N/A
$$

MTZ009>010-012-014-046-048-049-054-141300-
EAST SLOPES AND CENTRAL MONTANA
CITY           SKY/WX    TMP DP  RH WIND       PRES   REMARKS
CUT BANK       CLEAR     34  30  85 CALM      30.07S
GREAT FALLS    CLEAR     34  32  92 W7        30.06S WCI  28
HELENA         PTCLDY    37  34  89 CALM      30.08S
MALMSTROM AFB  CLEAR     37  36  96 S3        30.08S
* CONRAD       CLEAR     28  28 100 N/A        N/A
* EAST GLACIER N/A       32  31  96 NW8        N/A   WCI  25
* MONARCH      N/A       30  28  92 S2         N/A
* PENDROY      N/A       33  32  96 W2         N/A
* ROGERS PASS  N/A       38  31  76 E7G12      N/A   WCI  33
* SAINT MARY   N/A       28  27  96 SE3        N/A
* SWEET GRASS  N/A       38  38 100 S13        N/A   WCI  30
* WHITE SULPH  N/A       34  30  85 NE5        N/A   WCI  29
$$

MTZ011-013-016-021-035-040-045-047-050-051-141300-
NORTH CENTRAL MONTANA
CITY           SKY/WX    TMP DP  RH WIND       PRES   REMARKS
HAVRE          CLEAR     36  34  92 E7        30.08S WCI  30
LEWISTOWN      MOCLDY    39  34  82 S6        30.07S WCI  35
* CHINOOK      PTCLDY    36  34  92 E6        30.10S WCI  31
* FORT BENTON  CLEAR     39  36  89 CALM      30.09R
* CHESTER      N/A       33  30  89 SE1        N/A
* DENTON       N/A       42  35  76 SE9        N/A
* GEYSER       N/A       34  33  96 SW5        N/A   WCI  29
* JUDITH GAP   N/A       32  32 100 SE7        N/A   WCI  25
* LOMA         N/A       40  36  86 NE6        N/A   WCI  36
$$

MTZ017>020-022>027-061-062-141300-
NORTHEAST MONTANA
CITY           SKY/WX    TMP DP  RH WIND       PRES   REMARKS
GLASGOW        MOCLDY    37  30  76 E9        30.13F WCI  30
GLENDIVE       PTCLDY    32  30  92 NE3       30.16S
JORDAN         CLOUDY    39  37  93 CALM      30.12S
SIDNEY         PTCLDY    28  27  96 CALM      30.20R
WOLF POINT     PTCLDY    28  25  89 CALM      30.18S
* BEAVER HILL  N/A       35  31  85 E7         N/A   WCI  29
* CIRCLE       N/A       39  33  79 N/A        N/A
* LINDSAY DVD  N/A       33  30  89 NE4        N/A
* NAVAJO       N/A       33  30  89 SW8        N/A   WCI  26
* SACO         N/A       34  32  92 NE3        N/A
$$

MTZ028>042-056>058-141300-
SOUTHCENTRAL AND SOUTHEAST MONTANA
CITY           SKY/WX    TMP DP  RH WIND       PRES   REMARKS
BAKER          CLOUDY    37  36  96 SE6       30.16S WCI  32
BILLINGS       MOCLDY    37  34  89 CALM      30.09S
LIVINGSTON     PTCLDY    30  28  92 CALM      30.10S
MILES CITY     CLOUDY    39  36  89 NE3       30.13F
* LAUREL APT   MOCLDY    36  28  73 N/A        N/A
* ROUNDUP APT  MOCLDY    36  32  85 N/A        N/A
* ALZADA       N/A       37  34  89 E6         N/A   WCI  32
* HYSHAM       N/A       42  30  63 N/A        N/A
* LAME DEER    N/A       39  32  76 SE8        N/A   WCI  33
* REED POINT   N/A       34  33  96 N/A        N/A
* ROSCOE HILL  N/A       35  29  79 W3         N/A
$$

REGIONAL REPORTS...DAKOTAS
CITY           SKY/WX    TMP DP  RH WIND       PRES   REMARKS
WILLISTON      CLEAR     28  27  96 S3        30.18S
DICKINSON      PTCLDY    34  30  85 NW8       30.15S WCI  27
BEACH          N/A       25  25 100 CALM      30.16F
CROSBY         CLEAR     32  32 100 W3        30.17S
TIOGA          CLEAR     27  27 100 W6        30.19R WCI  20
WATFORD CITY   CLEAR     30  30 100 SW6       30.16S WCI  24
BISMARCK       PTCLDY    37  36  96 NW9       30.16R WCI  30
GRAND FORKS    CLOUDY    48  45  89 W8        30.01R
FARGO          CLEAR     41  37  86 W12       30.07R
BUFFALO SD     PTCLDY    37  32  82 NW5       30.09F WCI  33
RAPID CITY     CLEAR     34  30  85 NW5       30.17S WCI  29
$$

REGIONAL REPORTS...WYOMING/IDAHO/WASHINGTON
CITY           SKY/WX    TMP DP  RH WIND       PRES   REMARKS
GILLETTE       CLEAR     30  28  92 CALM      30.10S
SHERIDAN       PTCLDY    34  30  85 CALM      30.08F
CODY           CLEAR     37  34  89 SW5       30.07F WCI  33
YELLOWSTONE LA CLEAR     28  25  89 NW3       30.20R
SALMON         PTCLDY    36  28  73 CALM      30.06R
MULLAN PASS    CLEAR     46  25  44 SE5       30.07S
SAND POINT     CLEAR     36  36 100 CALM      30.02S
SPOKANE        PTCLDY    45  30  56 CALM      29.99R
$$

REGIONAL REPORTS...ALBERTA
CITY           SKY/WX    TMP DP  RH WIND       PRES   REMARKS
CALGARY        MOCLDY    43  37  79 NW6       30.05R
LETHBRIDGE     N/A       36  34  92 W6        30.04R WCI  31
MEDICINE HAT   CLEAR     36  34  92 N2        30.08S
EDMONTON       PTCLDY    34  32  92 S5        30.03R WCI  29
WATERTON GATE  N/A       27  25  92 W1         N/A
CARDSTON       N/A       34  32  92 SW6        N/A   WCI  29
MILK RIVER     N/A       32  30  92 S6         N/A   WCI  26
$$

REGIONAL REPORTS...SASKATCHEWAN
CITY           SKY/WX    TMP DP  RH WIND       PRES   REMARKS
REGINA         FAIR      28  27  96 SE3       30.15S
VAL MARIE      N/A       30  28  92 NE5        N/A   WCI  25
ASSINIBOIA     N/A       32  30  92 SW7        N/A   WCI  25
CORONACH       N/A       28  28 100 S3         N/A

$$



USA.gov is the U.S. government's official web portal to all federal, state and local government web resources and services.